VK6JI-11 Weather Reports


time (UTC)temp
F
wind
direction
speed
knots
gust
knots
rain 1hr
in
rain 24hr
in
rain mn
in
humidity
%
barometer
mb
20260505004113 56 103 1.7 5.2 0.00 0.00 0.00 86 1026.2
20260505003913 56 58 1.7 3.5 0.00 0.00 0.00 86 1026.2
20260505003712 56 45 0.9 3.5 0.00 0.00 0.00 87 1026.2
20260505003511 56 45 0.9 3.5 0.00 0.00 0.00 87 1026.1
20260505003308 55 45 0.9 3.5 0.00 0.00 0.00 87 1026.1
20260505003108 55 45 1.7 4.3 0.00 0.00 0.00 88 1026.0
20260505002907 55 41 1.7 4.3 0.00 0.00 0.00 88 1026.0
20260505002708 55 55 1.7 4.3 0.00 0.00 0.00 89 1026.0
20260505002506 54 53 1.7 4.3 0.00 0.00 0.00 89 1025.9
20260505002306 54 62 3.5 4.3 0.00 0.00 0.00 89 1025.8
20260505002105 54 49 0.9 2.6 0.00 0.00 0.00 90 1025.8
20260505001905 54 44 0.9 2.6 0.00 0.00 0.00 90 1025.8
20260505001705 54 38 0.9 2.6 0.00 0.00 0.00 90 1025.6
20260505001505 53 38 1.7 2.6 0.00 0.00 0.00 90 1025.7
20260505001304 53 61 0.0 1.7 0.00 0.00 0.00 91 1025.6
20260505001107 53 61 0.9 1.7 0.00 0.00 0.00 91 1025.6
20260505000905 53 61 0.9 2.6 0.00 0.00 0.00 91 1025.5
20260505000707 53 61 0.9 2.6 0.00 0.00 0.00 91 1025.6
20260505000506 52 61 0.0 2.6 0.00 0.00 0.00 91 1025.6
20260505000302 52 61 0.0 2.6 0.00 0.00 0.00 91 1025.7
20260504235901 52 62 0.0 1.7 0.00 0.00 0.00 91 1025.6
20260504235700 52 62 0.9 1.7 0.00 0.00 0.00 91 1025.6
20260504235458 52 55 0.0 1.7 0.00 0.00 0.00 90 1025.6
20260504235256 51 55 0.0 1.7 0.00 0.00 0.00 90 1025.6
20260504235056 51 55 0.0 1.7 0.00 0.00 0.00 90 1025.6
20260504234856 51 55 0.0 1.7 0.00 0.00 0.00 90 1025.6
20260504234655 51 55 0.0 0.0 0.00 0.00 0.00 90 1025.6
20260504234455 51 55 0.0 0.0 0.00 0.00 0.00 90 1025.5
20260504234254 51 55 0.0 0.0 0.00 0.00 0.00 90 1025.5
20260504234054 51 55 0.0 0.0 0.00 0.00 0.00 90 1025.4
20260504233853 51 55 0.0 0.0 0.00 0.00 0.00 89 1025.5
20260504233653 51 55 0.0 0.0 0.00 0.00 0.00 89 1025.5
20260504233453 51 55 0.0 0.0 0.00 0.00 0.00 89 1025.4
20260504233252 50 55 0.0 0.0 0.00 0.00 0.00 89 1025.4
20260504233052 50 56 0.0 0.0 0.00 0.00 0.00 89 1025.4
20260504232852 50 55 0.0 0.0 0.00 0.00 0.00 89 1025.3
20260504232652 50 56 0.0 0.0 0.00 0.00 0.00 88 1025.3
20260504232450 50 56 0.0 0.0 0.00 0.00 0.00 88 1025.3
20260504232250 50 56 0.0 0.0 0.00 0.00 0.00 88 1025.3
20260504232049 50 55 0.0 0.0 0.00 0.00 0.00 88 1025.2
20260504231849 50 56 0.0 0.0 0.00 0.00 0.00 88 1025.2
20260504231645 50 56 0.0 0.0 0.00 0.00 0.00 88 1025.2
20260504231445 50 56 0.0 0.0 0.00 0.00 0.00 88 1025.2
20260504231245 51 56 0.0 0.0 0.00 0.00 0.00 88 1025.2
20260504231044 51 56 0.0 0.0 0.00 0.00 0.00 87 1025.1
20260504230844 51 56 0.0 0.0 0.00 0.00 0.00 88 1025.1
20260504230643 51 56 0.0 0.0 0.00 0.00 0.00 87 1025.1
20260504230443 51 56 0.0 0.0 0.00 0.00 0.00 88 1025.1
20260504230242 51 56 0.0 0.0 0.00 0.00 0.00 88 1025.1
20260504230043 51 56 0.0 0.0 0.00 0.00 0.00 88 1025.1
20260504225833 51 56 0.0 0.0 0.00 0.00 0.00 88 1025.1
20260504225631 51 56 0.0 0.0 0.00 0.00 0.00 87 1025.0
20260504225431 51 56 0.0 0.0 0.00 0.00 0.00 87 1024.9
20260504225232 51 56 0.0 0.0 0.00 0.00 0.00 87 1025.0
20260504225032 51 56 0.0 0.0 0.00 0.00 0.00 88 1024.9
20260504224831 51 56 0.0 0.0 0.00 0.00 0.00 88 1024.9
20260504224631 52 56 0.0 0.0 0.00 0.00 0.00 88 1024.9
20260504224430 52 56 0.0 0.0 0.00 0.00 0.00 88 1024.8
20260504224230 52 56 0.0 0.0 0.00 0.00 0.00 88 1024.8
20260504224029 52 56 0.0 0.0 0.00 0.00 0.00 88 1024.8
20260504223829 52 55 0.0 0.0 0.00 0.00 0.00 88 1024.8
20260504223629 52 55 0.0 0.0 0.00 0.00 0.00 88 1024.7
20260504223429 52 55 0.0 0.0 0.00 0.00 0.00 88 1024.7
20260504223230 52 55 0.0 0.0 0.00 0.00 0.00 88 1024.7
20260504223029 52 55 0.0 2.6 0.00 0.00 0.00 88 1024.7
20260504222829 52 55 0.0 2.6 0.00 0.00 0.00 88 1024.6
20260504222629 52 55 0.0 2.6 0.00 0.00 0.00 88 1024.6
20260504222429 52 55 0.0 2.6 0.00 0.00 0.00 88 1024.5
20260504222229 52 55 0.0 2.6 0.00 0.00 0.00 88 1024.5
20260504222029 52 53 0.0 1.7 0.00 0.00 0.00 88 1024.5
20260504221829 52 53 0.0 1.7 0.00 0.00 0.00 88 1024.5
20260504221629 52 48 0.0 1.7 0.00 0.00 0.00 88 1024.4
20260504221428 52 48 0.0 1.7 0.00 0.00 0.00 88 1024.5
20260504221229 52 48 0.0 1.7 0.00 0.00 0.00 88 1024.4
20260504221029 52 48 0.0 0.9 0.00 0.00 0.00 88 1024.4
20260504220824 52 48 0.0 0.9 0.00 0.00 0.00 88 1024.4
20260504220624 52 48 0.0 0.9 0.00 0.00 0.00 88 1024.4
20260504220424 52 48 0.0 0.9 0.00 0.00 0.00 88 1024.4
20260504220221 52 48 0.0 0.9 0.00 0.00 0.00 88 1024.4
20260504220020 52 48 0.0 0.9 0.00 0.00 0.00 88 1024.4
20260504215805 52 48 0.0 0.9 0.00 0.00 0.00 88 1024.4
20260504215604 52 48 0.0 0.9 0.00 0.00 0.00 88 1024.4
20260504215405 52 48 0.0 0.9 0.00 0.00 0.00 88 1024.3
20260504215205 52 48 0.0 0.9 0.00 0.00 0.00 88 1024.3
20260504215005 52 48 0.0 0.9 0.00 0.00 0.00 88 1024.3
20260504214806 52 48 0.0 1.7 0.00 0.00 0.00 88 1024.4
20260504214604 52 48 0.0 1.7 0.00 0.00 0.00 88 1024.3
20260504214404 52 48 0.0 1.7 0.00 0.00 0.00 88 1024.3
20260504214204 52 48 0.0 1.7 0.00 0.00 0.00 88 1024.2
20260504214004 52 48 0.0 1.7 0.00 0.00 0.00 88 1024.2
20260504213803 52 48 0.0 0.9 0.00 0.00 0.00 88 1024.2
20260504213603 52 48 0.0 1.7 0.00 0.00 0.00 88 1024.2
20260504213405 52 48 0.0 2.6 0.00 0.00 0.00 88 1024.2
20260504213204 52 48 0.0 2.6 0.00 0.00 0.00 88 1024.2
20260504213005 52 48 0.0 2.6 0.00 0.00 0.00 88 1024.2
20260504212804 52 48 0.0 2.6 0.00 0.00 0.00 88 1024.3
20260504212604 52 48 0.9 2.6 0.00 0.00 0.00 88 1024.3
20260504212404 52 21 0.0 1.7 0.00 0.00 0.00 88 1024.3
20260504212205 52 21 0.0 1.7 0.00 0.00 0.00 88 1024.3
20260504212004 52 21 0.9 1.7 0.00 0.00 0.00 88 1024.4
20260504211804 52 21 0.0 1.7 0.00 0.00 0.00 88 1024.3
20260504211603 52 21 0.0 1.7 0.00 0.00 0.00 88 1024.2
20260504211403 52 21 0.0 1.7 0.00 0.00 0.00 88 1024.3
20260504211204 52 21 0.0 1.7 0.00 0.00 0.00 88 1024.3
20260504211004 52 21 0.0 0.0 0.00 0.00 0.00 88 1024.4
20260504210804 52 21 0.0 0.0 0.00 0.00 0.00 88 1024.3
20260504210604 52 21 0.0 0.0 0.00 0.00 0.00 88 1024.3
20260504210403 52 21 0.0 0.0 0.00 0.00 0.00 88 1024.3
20260504210204 52 21 0.0 0.0 0.00 0.00 0.00 88 1024.3
20260504210004 52 21 0.0 0.0 0.00 0.00 0.00 88 1024.3
20260504205803 52 21 0.0 0.0 0.00 0.00 0.00 87 1024.3
20260504205603 52 21 0.0 0.0 0.00 0.00 0.00 87 1024.3
20260504205405 52 21 0.0 0.0 0.00 0.00 0.00 87 1024.3
20260504205204 52 21 0.0 0.0 0.00 0.00 0.00 87 1024.3
20260504205003 52 21 0.0 0.0 0.00 0.00 0.00 87 1024.3
20260504204803 52 21 0.0 0.0 0.00 0.00 0.00 87 1024.4
20260504204604 52 21 0.0 0.0 0.00 0.00 0.00 87 1024.3
20260504204404 52 21 0.0 0.0 0.00 0.00 0.00 87 1024.3
20260504204204 52 21 0.0 0.0 0.00 0.00 0.00 87 1024.2
20260504204006 52 21 0.0 0.0 0.00 0.00 0.00 87 1024.3
20260504203803 52 21 0.0 0.0 0.00 0.00 0.00 87 1024.3
20260504203603 52 21 0.0 0.0 0.00 0.00 0.00 87 1024.3
20260504203404 52 21 0.0 0.0 0.00 0.00 0.00 87 1024.3
20260504203204 52 21 0.0 0.0 0.00 0.00 0.00 87 1024.4
20260504203004 52 21 0.0 0.0 0.00 0.00 0.00 87 1024.3
20260504202804 52 21 0.0 0.0 0.00 0.00 0.00 87 1024.3
20260504202604 52 21 0.0 0.0 0.00 0.00 0.00 87 1024.3
20260504202403 52 21 0.0 0.0 0.00 0.00 0.00 87 1024.4
20260504202204 52 21 0.0 0.0 0.00 0.00 0.00 87 1024.4
20260504202004 53 21 0.0 0.0 0.00 0.00 0.00 87 1024.3
20260504201804 53 21 0.0 0.0 0.00 0.00 0.00 87 1024.3
20260504201605 53 21 0.0 1.7 0.00 0.00 0.00 87 1024.3
20260504201403 53 21 0.0 1.7 0.00 0.00 0.00 87 1024.3
20260504201205 53 21 0.0 1.7 0.00 0.00 0.00 87 1024.3
20260504201004 53 21 0.0 1.7 0.00 0.00 0.00 87 1024.2
20260504200804 53 21 0.0 1.7 0.00 0.00 0.00 87 1024.3
20260504200604 53 21 0.0 1.7 0.00 0.00 0.00 87 1024.3
20260504200405 53 151 0.0 0.0 0.00 0.00 0.00 87 1024.2
20260504200203 53 151 0.0 0.0 0.00 0.00 0.00 88 1024.2
20260504200004 53 151 0.0 0.0 0.00 0.00 0.00 88 1024.3
20260504195803 53 151 0.0 0.0 0.00 0.00 0.00 87 1024.4
20260504195605 53 151 0.0 0.9 0.00 0.00 0.00 87 1024.3
20260504195403 53 151 0.0 0.9 0.00 0.00 0.00 88 1024.3
20260504195204 53 151 0.0 0.9 0.00 0.00 0.00 88 1024.3
20260504195003 53 151 0.0 0.9 0.00 0.00 0.00 88 1024.3
20260504194804 53 151 0.0 0.9 0.00 0.00 0.00 88 1024.4
20260504194605 53 151 0.0 0.9 0.00 0.00 0.00 88 1024.4
20260504194404 53 151 0.0 0.0 0.00 0.00 0.00 88 1024.3
20260504194205 53 151 0.0 0.0 0.00 0.00 0.00 88 1024.4
20260504193956 53 151 0.0 0.0 0.00 0.00 0.00 88 1024.3
20260504193755 53 151 0.0 0.0 0.00 0.00 0.00 88 1024.3
20260504193554 53 151 0.0 0.0 0.00 0.00 0.00 88 1024.4
20260504193354 53 151 0.0 0.0 0.00 0.00 0.00 88 1024.3
20260504193154 53 151 0.0 0.0 0.00 0.00 0.00 88 1024.3
20260504192947 53 151 0.0 0.0 0.00 0.00 0.00 88 1024.3
20260504192747 53 151 0.0 0.0 0.00 0.00 0.00 88 1024.3
20260504192547 53 151 0.0 0.0 0.00 0.00 0.00 88 1024.3
20260504192344 53 151 0.0 0.0 0.00 0.00 0.00 88 1024.2
20260504192143 52 151 0.0 0.0 0.00 0.00 0.00 88 1024.3
20260504191942 52 151 0.0 0.0 0.00 0.00 0.00 89 1024.4
20260504191742 52 151 0.0 0.0 0.00 0.00 0.00 89 1024.4
20260504191542 52 151 0.0 0.0 0.00 0.00 0.00 89 1024.3
20260504191341 52 151 0.0 0.0 0.00 0.00 0.00 89 1024.4
20260504191141 52 151 0.0 0.0 0.00 0.00 0.00 88 1024.4
20260504190940 52 151 0.0 0.0 0.00 0.00 0.00 89 1024.4
20260504190739 52 151 0.0 0.0 0.00 0.00 0.00 89 1024.5
20260504190540 52 151 0.0 0.0 0.00 0.00 0.00 89 1024.4
20260504190339 52 151 0.0 0.0 0.00 0.00 0.00 89 1024.4
20260504190138 52 151 0.0 0.0 0.00 0.00 0.00 89 1024.5
20260504185937 52 151 0.0 0.0 0.00 0.00 0.00 89 1024.6
20260504185738 52 151 0.0 0.0 0.00 0.00 0.00 89 1024.6
20260504185537 52 151 0.0 0.0 0.00 0.00 0.00 89 1024.6
20260504185337 52 151 0.0 0.0 0.00 0.00 0.00 89 1024.6
20260504185136 52 151 0.0 0.0 0.00 0.00 0.00 89 1024.6
20260504184936 52 151 0.0 0.0 0.00 0.00 0.00 89 1024.6
20260504184735 52 151 0.0 0.0 0.00 0.00 0.00 89 1024.6
20260504184531 52 152 0.0 0.0 0.00 0.00 0.00 89 1024.6
20260504184330 52 152 0.0 0.0 0.00 0.00 0.00 89 1024.6
20260504184131 52 152 0.0 0.0 0.00 0.00 0.00 89 1024.6
20260504183932 52 152 0.0 0.0 0.00 0.00 0.00 89 1024.6
20260504183731 52 152 0.0 0.0 0.00 0.00 0.00 89 1024.6
20260504183532 52 152 0.0 1.7 0.00 0.00 0.00 89 1024.6
20260504183331 52 152 0.0 1.7 0.00 0.00 0.00 88 1024.6
20260504183132 51 152 0.0 1.7 0.00 0.00 0.00 89 1024.6
20260504182931 51 152 0.0 1.7 0.00 0.00 0.00 88 1024.6
20260504182731 51 152 0.0 1.7 0.00 0.00 0.00 88 1024.6
20260504182530 51 173 0.0 0.0 0.00 0.00 0.00 88 1024.7
20260504182330 51 173 0.0 0.0 0.00 0.00 0.00 88 1024.7
20260504182131 51 173 0.0 0.0 0.00 0.00 0.00 88 1024.7
20260504181931 51 173 0.0 0.0 0.00 0.00 0.00 88 1024.7
20260504181731 51 173 0.0 0.0 0.00 0.00 0.00 87 1024.7
20260504181530 51 173 0.0 0.0 0.00 0.00 0.00 87 1024.8
20260504181331 51 173 0.0 0.0 0.00 0.00 0.00 87 1024.8
20260504181131 51 173 0.0 0.0 0.00 0.00 0.00 87 1024.9
20260504180932 51 173 0.0 0.0 0.00 0.00 0.00 87 1024.8
20260504180731 51 173 0.0 0.0 0.00 0.00 0.00 87 1024.9
20260504180531 51 173 0.0 0.0 0.00 0.00 0.00 87 1024.9
20260504180331 51 173 0.0 0.0 0.00 0.00 0.00 87 1025.0
20260504180131 51 173 0.0 0.0 0.00 0.00 0.00 87 1024.8
20260504175933 51 173 0.0 0.0 0.00 0.00 0.00 87 1024.9
20260504175733 51 173 0.0 0.0 0.00 0.00 0.00 87 1024.9
20260504175534 51 173 0.0 0.0 0.00 0.00 0.00 87 1024.9
20260504175332 51 173 0.0 0.0 0.00 0.00 0.00 87 1024.9
20260504175133 51 173 0.0 0.0 0.00 0.00 0.00 87 1024.9
20260504174933 51 173 0.0 0.0 0.00 0.00 0.00 87 1025.0
20260504174734 51 173 0.0 0.0 0.00 0.00 0.00 87 1024.9
20260504174533 51 173 0.0 0.0 0.00 0.00 0.00 87 1024.9
20260504174334 51 173 0.0 0.0 0.00 0.00 0.00 87 1024.9
20260504174132 51 173 0.0 0.0 0.00 0.00 0.00 86 1024.9
20260504173933 52 173 0.0 0.0 0.00 0.00 0.00 86 1024.9
20260504173732 52 173 0.0 0.0 0.00 0.00 0.00 86 1024.9
20260504173533 52 173 0.0 0.0 0.00 0.00 0.00 86 1024.8
20260504173332 52 173 0.0 0.0 0.00 0.00 0.00 86 1024.9
20260504173133 52 173 0.0 0.0 0.00 0.00 0.00 86 1024.9
20260504172933 52 173 0.0 0.0 0.00 0.00 0.00 86 1024.9
20260504172733 52 173 0.0 0.0 0.00 0.00 0.00 86 1024.9
20260504172535 52 173 0.0 0.0 0.00 0.00 0.00 86 1024.9
20260504172333 52 173 0.0 0.0 0.00 0.00 0.00 86 1025.0
20260504172132 52 173 0.0 0.0 0.00 0.00 0.00 86 1025.0
20260504171933 52 173 0.0 0.0 0.00 0.00 0.00 86 1024.9
20260504171733 52 173 0.0 0.0 0.00 0.00 0.00 86 1025.0
20260504171533 52 173 0.0 0.0 0.00 0.00 0.00 86 1024.9
20260504171330 52 173 0.0 0.0 0.00 0.00 0.00 86 1025.0
20260504171130 52 173 0.0 0.0 0.00 0.00 0.00 86 1025.0
20260504170929 52 173 0.0 0.0 0.00 0.00 0.00 86 1025.0
20260504170728 52 173 0.0 0.0 0.00 0.00 0.00 85 1025.1
20260504170532 52 173 0.0 0.0 0.00 0.00 0.00 85 1025.1
20260504170328 52 173 0.0 0.0 0.00 0.00 0.00 85 1025.1
20260504170127 52 173 0.0 0.0 0.00 0.00 0.00 85 1025.1
20260504151121 55 173 0.0 0.0 0.00 0.00 0.00 81 1025.4
20260504150917 55 173 0.0 0.0 0.00 0.00 0.00 81 1025.4
20260504150717 55 173 0.0 0.0 0.00 0.00 0.00 81 1025.5
20260504150514 56 173 0.0 0.0 0.00 0.00 0.00 81 1025.4
20260504150309 56 173 0.0 0.0 0.00 0.00 0.00 81 1025.3
20260504150109 56 173 0.0 0.0 0.00 0.00 0.00 81 1025.4
20260504141253 57 173 0.0 0.0 0.00 0.00 0.00 81 1025.4
20260504141052 57 173 0.0 0.0 0.00 0.00 0.00 81 1025.4
20260504140853 57 173 0.0 0.0 0.00 0.00 0.00 81 1025.4
20260504140651 57 173 0.0 0.0 0.00 0.00 0.00 81 1025.3
20260504140452 57 173 0.0 0.0 0.00 0.00 0.00 81 1025.4
20260504140251 57 173 0.0 0.0 0.00 0.00 0.00 81 1025.3
20260504130649 58 179 0.0 1.7 0.00 0.00 0.00 82 1025.2
20260504130449 58 179 0.9 1.7 0.00 0.00 0.00 82 1025.2
20260504130249 58 179 0.0 0.9 0.00 0.00 0.00 82 1025.2
20260504120242 60 179 0.0 0.0 0.00 0.00 0.00 80 1025.2
20260504110624 63 179 0.0 0.9 0.00 0.00 0.00 76 1025.5
20260504110421 63 179 0.0 0.9 0.00 0.00 0.00 76 1025.4
20260504110221 63 179 0.0 0.9 0.00 0.00 0.00 76 1025.4
20260504100555 64 223 0.0 4.3 0.00 0.00 0.00 73 1024.7
20260504100351 64 223 0.0 3.5 0.00 0.00 0.00 73 1024.8
20260504100152 64 223 0.0 5.2 0.00 0.00 0.00 73 1024.7
20260504090130 67 214 1.7 8.7 0.00 0.00 0.00 68 1024.3
20260504081931 68 230 2.6 8.7 0.00 0.00 0.00 65 1024.2
20260504081731 68 211 1.7 10.4 0.00 0.00 0.00 65 1024.2
20260504081529 68 211 4.3 10.4 0.00 0.00 0.00 65 1024.2
20260504081329 68 225 3.5 10.4 0.00 0.00 0.00 65 1024.2
20260504081128 68 213 3.5 10.4 0.00 0.00 0.00 64 1024.2
20260504080929 68 225 6.1 10.4 0.00 0.00 0.00 64 1024.1
20260504080728 69 204 7.0 10.4 0.00 0.00 0.00 63 1024.2
20260504080527 69 209 4.3 10.4 0.00 0.00 0.00 64 1024.2
20260504080326 69 213 2.6 10.4 0.00 0.00 0.00 64 1024.3
20260504080127 69 213 3.5 10.4 0.00 0.00 0.00 64 1024.3
20260504070302 77 134 0.0 2.6 0.00 0.00 0.00 47 1024.3
20260504060240 76 80 0.9 2.6 0.00 0.00 0.00 50 1024.4
20260504050619 75 87 0.0 2.6 0.00 0.00 0.00 51 1025.0
20260504050419 74 87 1.7 2.6 0.00 0.00 0.00 51 1025.0
20260504050218 74 87 1.7 2.6 0.00 0.00 0.00 52 1025.1
20260504050017 74 87 0.0 2.6 0.00 0.00 0.00 53 1025.1
20260504045806 74 87 0.9 4.3 0.00 0.00 0.00 52 1025.2
20260504045604 74 87 0.0 5.2 0.00 0.00 0.00 52 1025.2
20260504045406 74 87 1.7 5.2 0.00 0.00 0.00 51 1025.3
20260504045204 74 92 1.7 5.2 0.00 0.00 0.00 51 1025.3
20260504045004 74 61 1.7 5.2 0.00 0.00 0.00 53 1025.4
20260504044805 74 75 2.6 5.2 0.00 0.00 0.00 52 1025.4
20260504044606 74 76 1.7 4.3 0.00 0.00 0.00 53 1025.4
20260504044405 74 92 0.9 4.3 0.00 0.00 0.00 53 1025.4
20260504044205 74 92 1.7 4.3 0.00 0.00 0.00 53 1025.5
20260504044005 74 53 0.9 3.5 0.00 0.00 0.00 52 1025.5
20260504043805 74 53 1.7 3.5 0.00 0.00 0.00 53 1025.5
20260504043604 74 55 1.7 3.5 0.00 0.00 0.00 54 1025.5
20260504043405 73 53 1.7 4.3 0.00 0.00 0.00 53 1025.5
20260504043207 73 53 0.9 4.3 0.00 0.00 0.00 54 1025.6
20260504043006 73 53 1.7 4.3 0.00 0.00 0.00 54 1025.6
20260504042805 73 27 1.7 4.3 0.00 0.00 0.00 53 1025.6
20260504042605 73 27 2.6 4.3 0.00 0.00 0.00 53 1025.7
20260504042405 73 53 1.7 4.3 0.00 0.00 0.00 53 1025.7
20260504042206 73 52 1.7 4.3 0.00 0.00 0.00 54 1025.7
20260504042006 73 52 1.7 4.3 0.00 0.00 0.00 54 1025.8
20260504041806 73 35 2.6 6.1 0.00 0.00 0.00 53 1025.8
20260504041604 73 52 1.7 6.1 0.00 0.00 0.00 55 1025.8
20260504041405 73 18 1.7 6.1 0.00 0.00 0.00 55 1025.9
20260504041205 73 18 1.7 6.1 0.00 0.00 0.00 55 1025.8
20260504041005 72 17 1.7 6.1 0.00 0.00 0.00 56 1025.9
20260504040804 72 72 0.9 5.2 0.00 0.00 0.00 55 1026.0
20260504040605 73 72 1.7 5.2 0.00 0.00 0.00 55 1026.0
20260504040404 73 75 2.6 5.2 0.00 0.00 0.00 55 1026.0
20260504040203 73 27 2.6 5.2 0.00 0.00 0.00 54 1026.0
20260504040004 73 13 1.7 5.2 0.00 0.00 0.00 54 1026.1
20260504035804 73 13 2.6 5.2 0.00 0.00 0.00 54 1026.2
20260504035604 73 84 1.7 2.6 0.00 0.00 0.00 55 1026.2
20260504035405 73 87 1.7 3.5 0.00 0.00 0.00 56 1026.3
20260504035204 72 87 0.9 4.3 0.00 0.00 0.00 57 1026.3
20260504035004 72 86 0.9 4.3 0.00 0.00 0.00 57 1026.3
20260504034804 72 90 1.7 4.3 0.00 0.00 0.00 56 1026.3
20260504034604 72 87 1.7 4.3 0.00 0.00 0.00 56 1026.3
20260504034403 72 73 2.6 5.2 0.00 0.00 0.00 56 1026.4
20260504034203 72 32 0.9 5.2 0.00 0.00 0.00 57 1026.4
20260504034003 72 32 0.9 5.2 0.00 0.00 0.00 56 1026.5
20260504033803 72 31 2.6 5.2 0.00 0.00 0.00 57 1026.5
20260504033604 72 7 2.6 5.2 0.00 0.00 0.00 57 1026.5
20260504033403 72 21 2.6 4.3 0.00 0.00 0.00 56 1026.6
20260504033204 72 66 2.6 4.3 0.00 0.00 0.00 57 1026.5
20260504033004 71 69 1.7 5.2 0.00 0.00 0.00 57 1026.6
20260504032804 71 68 2.6 5.2 0.00 0.00 0.00 58 1026.6
20260504032604 71 70 1.7 5.2 0.00 0.00 0.00 57 1026.6
20260504032404 71 70 1.7 5.2 0.00 0.00 0.00 58 1026.6
20260504032204 71 79 2.6 5.2 0.00 0.00 0.00 59 1026.7
20260504032005 71 83 1.7 7.8 0.00 0.00 0.00 59 1026.6
20260504031804 71 49 1.7 7.8 0.00 0.00 0.00 59 1026.7
20260504031604 71 56 1.7 7.8 0.00 0.00 0.00 59 1026.7
20260504031405 70 69 1.7 7.8 0.00 0.00 0.00 59 1026.8
20260504031202 70 68 2.6 7.8 0.00 0.00 0.00 59 1026.7
20260504031002 70 72 2.6 5.2 0.00 0.00 0.00 59 1026.8
20260504030802 70 77 2.6 5.2 0.00 0.00 0.00 60 1026.8
20260504030603 70 358 2.6 5.2 0.00 0.00 0.00 60 1026.8
20260504030401 70 65 2.6 5.2 0.00 0.00 0.00 60 1026.8
20260504030159 70 65 2.6 4.3 0.00 0.00 0.00 60 1026.8
20260504025957 70 44 2.6 4.3 0.00 0.00 0.00 60 1026.9
20260504025757 70 61 2.6 4.3 0.00 0.00 0.00 60 1026.9
20260504025558 70 80 2.6 4.3 0.00 0.00 0.00 60 1026.9
20260504025356 70 350 1.7 4.3 0.00 0.00 0.00 61 1026.9
20260504025156 69 76 1.7 4.3 0.00 0.00 0.00 61 1026.9
20260504024952 69 49 1.7 5.2 0.00 0.00 0.00 61 1027.0
20260504024753 69 46 2.6 5.2 0.00 0.00 0.00 61 1027.0
20260504024552 69 51 3.5 5.2 0.00 0.00 0.00 61 1027.0
20260504024351 69 62 2.6 5.2 0.00 0.00 0.00 61 1027.1
20260504024150 69 87 2.6 5.2 0.00 0.00 0.00 61 1027.1
20260504023950 69 117 1.7 4.3 0.00 0.00 0.00 62 1027.1
20260504023749 69 53 1.7 4.3 0.00 0.00 0.00 63 1027.2
20260504023553 69 58 0.9 4.3 0.00 0.00 0.00 63 1027.2
20260504023349 68 58 1.7 4.3 0.00 0.00 0.00 63 1027.2
20260504023148 68 46 2.6 4.3 0.00 0.00 0.00 63 1027.2
20260504022948 68 48 1.7 3.5 0.00 0.00 0.00 64 1027.2
20260504022747 68 46 1.7 4.3 0.00 0.00 0.00 64 1027.3
20260504022548 68 77 1.7 6.1 0.00 0.00 0.00 65 1027.2
20260504022346 68 70 1.7 6.1 0.00 0.00 0.00 65 1027.3
20260504022147 68 63 2.6 6.1 0.00 0.00 0.00 64 1027.3
20260504021945 67 44 3.5 6.1 0.00 0.00 0.00 64 1027.4
20260504021746 67 51 2.6 6.1 0.00 0.00 0.00 65 1027.3
20260504021545 67 56 1.7 5.2 0.00 0.00 0.00 66 1027.3
20260504021344 67 65 1.7 5.2 0.00 0.00 0.00 65 1027.4
20260504021141 67 76 2.6 5.2 0.00 0.00 0.00 66 1027.3
20260504020941 67 37 1.7 5.2 0.00 0.00 0.00 66 1027.4
20260504020741 67 51 2.6 5.2 0.00 0.00 0.00 66 1027.3
20260504020539 67 46 2.6 5.2 0.00 0.00 0.00 67 1027.4
20260504020341 66 73 2.6 6.1 0.00 0.00 0.00 68 1027.3
20260504020137 66 24 1.7 6.1 0.00 0.00 0.00 68 1027.4
20260504015936 66 76 1.7 6.1 0.00 0.00 0.00 68 1027.4
20260504015736 66 76 1.7 6.1 0.00 0.00 0.00 68 1027.4
20260504015535 66 62 2.6 6.1 0.00 0.00 0.00 67 1027.4
20260504015337 65 86 1.7 6.1 0.00 0.00 0.00 68 1027.5
20260504015136 65 89 2.6 6.1 0.00 0.00 0.00 68 1027.5
20260504014935 65 49 3.5 6.1 0.00 0.00 0.00 68 1027.4
20260504014735 65 53 2.6 6.1 0.00 0.00 0.00 69 1027.4
20260504014535 65 44 1.7 6.1 0.00 0.00 0.00 70 1027.4
20260504014335 65 68 1.7 6.1 0.00 0.00 0.00 70 1027.4
20260504014137 65 53 3.5 6.1 0.00 0.00 0.00 70 1027.4
20260504013936 64 53 2.6 6.1 0.00 0.00 0.00 72 1027.4
20260504013735 64 45 0.9 4.3 0.00 0.00 0.00 72 1027.4
20260504013535 64 46 2.6 4.3 0.00 0.00 0.00 72 1027.3
20260504013335 64 76 1.7 4.3 0.00 0.00 0.00 74 1027.3
20260504013137 63 42 1.7 4.3 0.00 0.00 0.00 74 1027.3
20260504012935 63 62 1.7 3.5 0.00 0.00 0.00 74 1027.3
20260504012735 63 350 2.6 3.5 0.00 0.00 0.00 75 1027.3
20260504012536 62 62 1.7 3.5 0.00 0.00 0.00 76 1027.4
20260504012335 62 73 1.7 3.5 0.00 0.00 0.00 77 1027.4
20260504012137 62 66 1.7 3.5 0.00 0.00 0.00 78 1027.5
20260504011935 61 66 1.7 4.3 0.00 0.00 0.00 78 1027.4
20260504011731 61 66 1.7 4.3 0.00 0.00 0.00 79 1027.5
20260504011517 61 69 1.7 4.3 0.00 0.00 0.00 80 1027.5
20260504011317 60 70 1.7 4.3 0.00 0.00 0.00 81 1027.5
20260504011116 60 66 0.9 4.3 0.00 0.00 0.00 81 1027.5
20260504010915 59 53 1.7 5.2 0.00 0.00 0.00 82 1027.5
20260504010715 59 22 2.6 5.2 0.00 0.00 0.00 82 1027.4
20260504010515 59 68 1.7 5.2 0.00 0.00 0.00 83 1027.5
20260504010316 59 68 1.7 5.2 0.00 0.00 0.00 83 1027.6
20260504010111 58 68 2.6 5.2 0.00 0.00 0.00 83 1027.6
20260504005910 58 79 1.7 4.3 0.00 0.00 0.00 84 1027.6
20260504005711 58 27 1.7 4.3 0.00 0.00 0.00 84 1027.5
20260504005510 57 80 1.7 4.3 0.00 0.00 0.00 85 1027.5
20260504005309 57 69 0.9 4.3 0.00 0.00 0.00 85 1027.6
20260504005109 57 63 2.6 4.3 0.00 0.00 0.00 86 1027.6
20260504004911 57 73 1.7 3.5 0.00 0.00 0.00 86 1027.5
20260504004708 57 79 1.7 3.5 0.00 0.00 0.00 86 1027.5
20260504004508 57 68 1.7 3.5 0.00 0.00 0.00 86 1027.6
20260504004307 56 53 0.9 3.5 0.00 0.00 0.00 87 1027.6